Location: Boiro
(42.6475°N, 8.8834°W)
Time: 06:20:53
(UTC+01:00)

Vanguard 1 - Pass Details

Date: 08 December 2021
Orbit: 652 x 3830 km, 34.2° (Epoch: 21 January)

Event Time Altitude Azimuth Distance (km) Brightness Sun altitude
Rises 07:40:18 0° 284° (WNW) 7,857 - -12.9°
Exits shadow 07:47:30 10° 273° (W) 6,565 13.6 -11.7°
Reaches altitude 10° 07:47:43 10° 273° (W) 6,527 13.6 -11.7°
Maximum altitude 08:00:54 22° 231° (SW) 4,600 13.2 -9.4°
Drops below altitude 10° 08:10:30 10° 186° (S) 4,590 13.7 -7.8°
Sets 08:14:32 0° 172° (S) 5,111 14.2 -7.1°
